Flag Weather past 2 weeks in Fresno, California, U.S.A.

Now
50 °F

Clear.


Feels Like: 49 °F
Forecast: 49 / 71 °F
Wind: 3 mph from East

Location: Fresno Air Terminal

Current Time: Nov 27, 2014 at 11:21:55 PM

Latest Report: Nov 27, 2014 at 10:53 PM


Visibility: 5 mi

Pressure: 30.08 "Hg

Humidity: 83%

Dew point: 45 °F

Location of FresnoLocation

Historic Weather in Fresno — Graph

°F

Fresno temperature yesterday

Maximum temperature yesterday: 68 °F (at 2:53 PM)
Minimum temperature yesterday: 42 °F (at 6:53 AM)
Average temperature yesterday: 53 °F

Past Weeks' High & Low Weather Summary

 TemperatureHumidityPressure
High71 °F (Nov 27, 2:53 PM)100% (Nov 21, 4:53 AM)30.50 "Hg (Nov 21, 4:53 AM)
Low41 °F (Nov 25, 5:53 AM)31% (Nov 19, 11:53 AM)29.99 "Hg (Nov 20, 6:53 PM)
Average55 °F74%30.18 "Hg
* Reported Nov 12 9:53 PM — Nov 27 9:53 PM, Fresno, Weather by CustomWeather, © 2014

Note: Actual official high and low records may vary slightly from our data, if they occured in-between our weather recording intervals... More about our weather records

Advertising

Fresno weather history for previous 24 hours

 ConditionsComfort  
Time TempWeatherWind HumidityBarometerVisibility
9:53 PM
Nov 27
51 °FClear.3 mph83%30.08 "Hg5 mi
8:53 PM53 °FClear.No wind77%30.09 "Hg5 mi
7:53 PM54 °FClear.No wind74%30.09 "Hg6 mi
6:53 PM57 °FClear.No wind67%30.08 "Hg7 mi
5:53 PM61 °FClear.No wind58%30.07 "Hg8 mi
4:53 PM66 °FPassing clouds.No wind47%30.07 "Hg7 mi
3:53 PM71 °FHaze.No wind38%30.07 "Hg6 mi
2:53 PM71 °FScattered clouds.No wind38%30.08 "Hg6 mi
1:53 PM70 °FScattered clouds.3 mph41%30.09 "Hg5 mi
12:53 PM68 °FScattered clouds.3 mph45%30.12 "Hg4 mi
11:53 AM66 °FBroken clouds.6 mph49%30.15 "Hg4 mi
10:53 AM62 °FBroken clouds.5 mph56%30.17 "Hg4 mi
9:53 AM57 °FBroken clouds.No wind64%30.19 "Hg4 mi
8:53 AM51 °FBroken clouds.No wind77%30.21 "Hg6 mi
7:53 AM45 °FFog.No wind90%30.21 "Hg5 mi
6:53 AM43 °FFog.3 mph89%30.20 "Hg6 mi
5:53 AM42 °FFog.No wind92%30.19 "Hg6 mi
4:53 AM43 °FFog.No wind93%30.19 "Hg6 mi
3:53 AM44 °FFog.No wind89%30.19 "Hg6 mi
2:53 AM45 °FFog.No wind90%30.20 "Hg6 mi
1:53 AM45 °FFog.No wind90%30.22 "Hg6 mi
12:53 AM46 °FFog.3 mph89%30.22 "Hg5 mi
11:53 PM
Nov 26
48 °FFog.No wind86%30.24 "Hg5 mi
Weather by CustomWeather, © 2014

See weather overviewHow to use our weather pages